• In Deutschland
  • Länderverzeichnis
  • Für 7 Tage
  • Wassertemperatur
  • Satellitenkarten
  • Wetterkarte
  • Widgets
  • user-avatar
    Anmelden

    Stündliche Wetter Rhineland-Palatinate

    Heute, 27 April, Freitag

    Zeit Temperatur Niederschläge Wind Luftdruck Luftfeuchtigkeit
    00:00 +4°C° 0 mm 0 m/S 734 mmHg 87%
    01:00 +5°C° 0 mm 1 m/S 734 mmHg 88%
    02:00 +5°C° 0 mm 1 m/S 733 mmHg 88%
    03:00 +5°C° 0 mm 1 m/S 733 mmHg 88%
    04:00 +6°C° 0 mm 1 m/S 733 mmHg 85%
    05:00 +7°C° 0 mm 1 m/S 733 mmHg 82%
    06:00 +8°C° 0 mm 1 m/S 732 mmHg 80%
    07:00 +8°C° 0 mm 2 m/S 732 mmHg 71%
    08:00 +10°C° 0 mm 2 m/S 732 mmHg 63%
    09:00 +12°C° 0 mm 3 m/S 731 mmHg 55%
    10:00 +13°C° 0 mm 3 m/S 731 mmHg 52%
    11:00 +16°C° 0 mm 3 m/S 730 mmHg 50%
    12:00 +17°C° 0 mm 3 m/S 730 mmHg 47%
    13:00 +17°C° 0 mm 3 m/S 729 mmHg 47%
    14:00 +18°C° 0 mm 4 m/S 728 mmHg 48%
    15:00 +18°C° 0 mm 4 m/S 728 mmHg 48%
    16:00 +17°C° 0 mm 3 m/S 728 mmHg 55%
    17:00 +16°C° 0 mm 3 m/S 727 mmHg 62%
    18:00 +15°C° 0 mm 2 m/S 727 mmHg 69%
    19:00 +14°C° 0 mm 2 m/S 728 mmHg 74%
    20:00 +12°C° 0 mm 2 m/S 728 mmHg 80%
    21:00 +10°C° 0 mm 2 m/S 728 mmHg 85%
    22:00 +10°C° 0 mm 3 m/S 729 mmHg 87%
    23:00 +9°C° 0 mm 3 m/S 729 mmHg 89%

    Morgen, 28 April, Samstag

    Zeit Temperatur Niederschläge Wind Luftdruck Luftfeuchtigkeit
    00:00 +9°C° 0 mm 3 m/S 729 mmHg 90%
    01:00 +8°C° 0 mm 3 m/S 729 mmHg 91%
    02:00 +8°C° 0 mm 3 m/S 729 mmHg 92%
    03:00 +7°C° 0 mm 3 m/S 730 mmHg 93%
    04:00 +6°C° 0 mm 4 m/S 730 mmHg 90%
    05:00 +7°C° 0 mm 4 m/S 730 mmHg 87%
    06:00 +7°C° 0 mm 5 m/S 731 mmHg 83%
    07:00 +8°C° 0 mm 5 m/S 731 mmHg 77%
    08:00 +9°C° 0 mm 5 m/S 731 mmHg 71%
    09:00 +10°C° 0 mm 5 m/S 731 mmHg 65%
    10:00 +13°C° 0 mm 4 m/S 731 mmHg 61%
    11:00 +14°C° 0 mm 4 m/S 731 mmHg 56%
    12:00 +15°C° 0 mm 4 m/S 730 mmHg 51%
    13:00 +17°C° 0 mm 4 m/S 730 mmHg 51%
    14:00 +17°C° 0 mm 3 m/S 730 mmHg 51%
    15:00 +17°C° 0 mm 3 m/S 729 mmHg 50%
    16:00 +16°C° 0,1 mm 2 m/S 729 mmHg 58%
    17:00 +15°C° 0,1 mm 2 m/S 729 mmHg 66%
    18:00 +13°C° 0,1 mm 1 m/S 729 mmHg 74%
    19:00 +13°C° 0,2 mm 1 m/S 729 mmHg 78%
    20:00 +12°C° 0,2 mm 1 m/S 730 mmHg 83%
    21:00 +11°C° 0,2 mm 1 m/S 730 mmHg 88%
    22:00 +11°C° 0,1 mm 1 m/S 730 mmHg 88%
    23:00 +10°C° 0,1 mm 1 m/S 729 mmHg 88%

    übermorgen, 29 April, Sonntag

    Zeit Temperatur Niederschläge Wind Luftdruck Luftfeuchtigkeit
    00:00 +9°C° 0,1 mm 0 m/S 729 mmHg 89%
    01:00 +10°C° 0,2 mm 1 m/S 729 mmHg 89%
    02:00 +10°C° 0,2 mm 1 m/S 728 mmHg 90%
    03:00 +10°C° 0,2 mm 1 m/S 728 mmHg 91%
    04:00 +10°C° 0,6 mm 1 m/S 728 mmHg 90%
    05:00 +11°C° 0,6 mm 1 m/S 727 mmHg 90%
    06:00 +11°C° 0,6 mm 1 m/S 727 mmHg 89%
    07:00 +13°C° 0,1 mm 1 m/S 727 mmHg 85%
    08:00 +14°C° 0,1 mm 2 m/S 727 mmHg 81%
    09:00 +16°C° 0,1 mm 2 m/S 727 mmHg 78%
    10:00 +18°C° 0,2 mm 2 m/S 726 mmHg 72%
    11:00 +19°C° 0,2 mm 2 m/S 725 mmHg 67%
    12:00 +21°C° 0,2 mm 2 m/S 725 mmHg 61%
    13:00 +21°C° 0,5 mm 2 m/S 724 mmHg 63%
    14:00 +21°C° 0,5 mm 2 m/S 723 mmHg 65%
    15:00 +21°C° 0,5 mm 2 m/S 723 mmHg 67%
    16:00 +20°C° 1,8 mm 2 m/S 722 mmHg 73%
    17:00 +18°C° 1,8 mm 2 m/S 721 mmHg 79%
    18:00 +17°C° 1,8 mm 2 m/S 720 mmHg 86%
    19:00 +16°C° 1,7 mm 3 m/S 721 mmHg 88%
    20:00 +13°C° 1,7 mm 4 m/S 721 mmHg 90%
    21:00 +12°C° 1,7 mm 5 m/S 721 mmHg 92%
    22:00 +10°C° 0,2 mm 6 m/S 721 mmHg 91%
    23:00 +9°C° 0,2 mm 7 m/S 722 mmHg 90%

    30 April, Montag

    Zeit Temperatur Niederschläge Wind Luftdruck Luftfeuchtigkeit
    00:00 +8°C° 0,2 mm 7 m/S 722 mmHg 89%
    01:00 +8°C° 0 mm 7 m/S 722 mmHg 88%
    02:00 +8°C° 0 mm 7 m/S 723 mmHg 87%
    03:00 +8°C° 0 mm 7 m/S 723 mmHg 86%
    04:00 +6°C° 0,1 mm 8 m/S 723 mmHg 85%
    05:00 +6°C° 0,1 mm 8 m/S 723 mmHg 83%
    06:00 +6°C° 0,1 mm 8 m/S 724 mmHg 82%
    07:00 +6°C° 0,1 mm 9 m/S 724 mmHg 80%
    08:00 +6°C° 0,1 mm 9 m/S 725 mmHg 78%
    09:00 +6°C° 0,1 mm 9 m/S 726 mmHg 76%
    10:00 +7°C° 0,1 mm 9 m/S 726 mmHg 74%
    11:00 +7°C° 0,1 mm 9 m/S 727 mmHg 71%
    12:00 +7°C° 0,1 mm 8 m/S 727 mmHg 69%
    13:00 +7°C° 0,1 mm 8 m/S 728 mmHg 68%
    14:00 +9°C° 0,1 mm 8 m/S 728 mmHg 66%
    15:00 +9°C° 0,1 mm 7 m/S 728 mmHg 64%
    16:00 +9°C° 0 mm 6 m/S 728 mmHg 66%
    17:00 +8°C° 0 mm 5 m/S 729 mmHg 69%
    18:00 +8°C° 0 mm 4 m/S 729 mmHg 71%
    19:00 +7°C° 0 mm 3 m/S 729 mmHg 77%
    20:00 +5°C° 0 mm 3 m/S 729 mmHg 82%
    21:00 +5°C° 0 mm 2 m/S 730 mmHg 88%
    22:00 +4°C° 0 mm 2 m/S 730 mmHg 88%
    23:00 +4°C° 0 mm 2 m/S 730 mmHg 89%

    1 Mai, Dienstag

    Zeit Temperatur Niederschläge Wind Luftdruck Luftfeuchtigkeit
    00:00 +3°C° 0 mm 2 m/S 730 mmHg 89%
    01:00 +3°C° 0 mm 2 m/S 730 mmHg 90%
    02:00 +3°C° 0 mm 1 m/S 730 mmHg 90%
    03:00 +3°C° 0 mm 1 m/S 730 mmHg 90%
    04:00 +4°C° 0 mm 1 m/S 731 mmHg 85%
    05:00 +4°C° 0 mm 2 m/S 731 mmHg 79%
    06:00 +4°C° 0 mm 2 m/S 731 mmHg 74%
    07:00 +6°C° 0 mm 2 m/S 732 mmHg 68%
    08:00 +7°C° 0 mm 2 m/S 732 mmHg 61%
    09:00 +9°C° 0 mm 2 m/S 733 mmHg 55%
    10:00 +10°C° 0 mm 2 m/S 733 mmHg 51%
    11:00 +12°C° 0 mm 2 m/S 733 mmHg 48%
    12:00 +13°C° 0 mm 2 m/S 733 mmHg 45%
    13:00 +13°C° 0 mm 2 m/S 733 mmHg 46%
    14:00 +13°C° 0 mm 2 m/S 733 mmHg 48%
    15:00 +13°C° 0 mm 2 m/S 733 mmHg 49%
    16:00 +12°C° 0 mm 2 m/S 733 mmHg 55%
    17:00 +12°C° 0 mm 2 m/S 733 mmHg 60%
    18:00 +10°C° 0 mm 2 m/S 733 mmHg 66%
    19:00 +9°C° 0 mm 1 m/S 733 mmHg 70%
    20:00 +8°C° 0 mm 1 m/S 734 mmHg 74%
    21:00 +6°C° 0 mm 1 m/S 734 mmHg 78%
    22:00 +6°C° 0 mm 1 m/S 734 mmHg 79%
    23:00 +5°C° 0 mm 1 m/S 734 mmHg 79%

    2 Mai, Mittwoch

    Zeit Temperatur Niederschläge Wind Luftdruck Luftfeuchtigkeit
    00:00 +5°C° 0 mm 1 m/S 735 mmHg 79%
    01:00 +4°C° 0 mm 1 m/S 735 mmHg 79%
    02:00 +4°C° 0 mm 1 m/S 735 mmHg 80%
    03:00 +4°C° 0 mm 1 m/S 735 mmHg 81%
    04:00 +5°C° 0 mm 1 m/S 735 mmHg 77%
    05:00 +6°C° 0 mm 1 m/S 735 mmHg 74%
    06:00 +7°C° 0 mm 1 m/S 736 mmHg 71%
    07:00 +8°C° 0 mm 2 m/S 736 mmHg 65%
    08:00 +10°C° 0 mm 2 m/S 736 mmHg 60%
    09:00 +13°C° 0 mm 2 m/S 736 mmHg 54%
    10:00 +13°C° 0 mm 2 m/S 736 mmHg 52%
    11:00 +14°C° 0 mm 2 m/S 736 mmHg 49%
    12:00 +15°C° 0 mm 2 m/S 735 mmHg 47%
    13:00 +14°C° 0 mm 3 m/S 735 mmHg 48%
    14:00 +14°C° 0 mm 3 m/S 735 mmHg 48%
    15:00 +14°C° 0 mm 3 m/S 735 mmHg 49%
    16:00 +13°C° 0 mm 3 m/S 735 mmHg 55%
    17:00 +13°C° 0 mm 2 m/S 735 mmHg 61%
    18:00 +12°C° 0 mm 2 m/S 735 mmHg 67%
    19:00 +9°C° 0 mm 2 m/S 735 mmHg 70%
    20:00 +8°C° 0 mm 2 m/S 735 mmHg 73%
    21:00 +7°C° 0 mm 2 m/S 736 mmHg 77%
    22:00 +7°C° 0 mm 2 m/S 736 mmHg 80%
    23:00 +6°C° 0 mm 2 m/S 736 mmHg 82%
    Mehr zeigen